Location: Unspecified
(43.4000°N, 0.0000°E)
Time: 11:19:01
(UTC+00:00)

VELOX 1 - Visible Passes

Search period start: 23 July 2019 00:00
Search period end: 02 August 2019 00:00
Orbit: 628 x 645 km, 98.2° (Epoch: 23 July)

Date Brightness Start Highest point End Pass type
(mag) Time Alt. Az. Time Alt. Az. Time Alt. Az.
23 Jul ? 00:23:41 24° E 00:24:32 26° ENE 00:28:10 10° N visible
23 Jul ? 02:01:12 31° W 02:01:12 31° W 02:04:46 10° NNW visible
24 Jul ? 00:46:23 41° E 00:46:46 42° ENE 00:50:55 10° N visible
24 Jul ? 02:23:53 19° W 02:23:53 19° W 02:26:30 10° NW visible
25 Jul ? 01:09:04 72° ENE 01:09:04 72° ENE 01:13:28 10° N visible
25 Jul ? 02:46:35 11° W 02:46:35 11° W 02:47:14 10° WNW visible
25 Jul ? 23:54:15 12° E 23:55:34 14° ENE 23:57:46 10° NNE visible
26 Jul ? 01:31:46 63° WNW 01:31:46 63° WNW 01:35:49 10° NNW visible
27 Jul ? 00:16:57 21° E 00:17:42 22° ENE 00:21:04 10° NNE visible
27 Jul ? 01:54:28 36° WNW 01:54:28 36° WNW 01:57:59 10° NNW visible
28 Jul ? 00:39:39 35° ENE 00:39:54 35° ENE 00:43:54 10° N visible
28 Jul ? 02:17:10 21° WNW 02:17:10 21° WNW 02:19:52 10° NW visible
29 Jul ? 01:02:21 59° ENE 01:02:21 59° ENE 01:06:31 10° N visible
29 Jul ? 02:39:52 13° WNW 02:39:52 13° WNW 02:41:07 10° WNW visible
29 Jul ? 23:47:33 11° ENE 23:48:45 12° ENE 23:50:16 10° NE visible
30 Jul ? 01:25:03 67° NW 01:25:03 67° NW 01:28:56 10° NNW visible
31 Jul ? 00:10:15 18° ENE 00:10:52 19° ENE 00:13:54 10° NNE visible
31 Jul ? 01:47:45 40° WNW 01:47:45 40° WNW 01:51:10 10° NNW visible
01 Aug ? 00:32:57 30° ENE 00:33:03 30° ENE 00:36:51 10° N visible
01 Aug ? 02:10:27 24° WNW 02:10:27 24° WNW 02:13:09 10° NW visible
